Regional Weather Roundup
Issued by NWS Charleston, SC

Current Version | Previous Version | Graphics & Text | Print | Product List | Glossary On
Versions: 1 2 3 4 5 6 7 8 9 10 11 12 13 14 15 16 17 18 19 20 21 22 23 24 25 26 27 28 29 30 31 32 33 34 35 36 37 38 39 40 41 42 43 44 45 46 47 48 49 50
000
ASUS42 KCHS 041711
RWRCHS

REGIONAL WEATHER ROUNDUP
NATIONAL WEATHER SERVICE CHARLESTON SC
1200 PM EST WED MAR 04 2015

NOTE: "FAIR" INDICATES FEW OR NO CLOUDS BELOW 12,000 FEET WITH NO
SIGNIFICANT WEATHER AND/OR OBSTRUCTIONS TO VISIBILITY.

NOT ALL STATIONS ARE QUALITY CONTROLLED BY THE NATIONAL
WEATHER SERVICE. USE DATA WITH CAUTION...ESPECIALLY
DEWPOINT OBSERVATIONS.

SCZ027-030-031-034>040-042>050-041800-
...SOUTHEAST SOUTH CAROLINA...

CITY           SKY/WX    TMP DP  RH WIND       PRES   REMARKS
N CHARLESTON   PTSUNNY   76  63  64 S16       30.09F
WATERFRONT PRK   N/A     68 N/A N/A SW15G23     N/A
MOUNT PLEASANT FAIR      73  64  73 S15G21    30.09F
PINOPOLIS      NOT AVBL
MONCKS CORNER  CLOUDY    79  64  61 SW16      30.08S
SUMMERVILLE    CLOUDY    77  64  65 SW9G18    30.08F
BEAUFORT MCAS  PTSUNNY   76  66  71 SE8       30.09F
BEAUFORT ARPT  FAIR      75  68  78 S9        30.09F
HILTON HEAD IS SUNNY     73  64  73 S6        30.12F
WALTERBORO     CLOUDY    77  66  69 SW10      30.08F
ALLENDALE      PTSUNNY   77  61  57 SW9G17    30.07F

...SOUTHERN MIDLANDS AND PEE DEE...

CITY           SKY/WX    TMP DP  RH WIND       PRES   REMARKS
GEORGETOWN     NOT AVBL
KINGSTREE      NOT AVBL
ORANGEBURG     PTSUNNY   76  61  59 SW20G28   30.07S
BARNWELL       PTSUNNY   79  63  57 SW10G17   30.07F
AIKEN          FAIR      73  63  68 SW14G26   30.09F
MANNING        PTSUNNY   77  46  33 SW14G21   30.07F
COLUMBIA       MOSUNNY   76  58  53 SW24G35   30.03F
SUMTER         NOT AVBL
FLORENCE       PTSUNNY   75  62  64 SW14      30.04F
MYRTLE BEACH   MOSUNNY   70  63  78 S14       30.08F
N MYRTLE BEACH CLOUDY    62  58  86 SW21      30.07F

$$

GAZ063-065-086>088-099>101-113>116-118-119-134>141-150-041800-
...SOUTHEAST GEORGIA...

CITY           SKY/WX    TMP DP  RH WIND       PRES   REMARKS
SAVANNAH ARPT  PTSUNNY   80  61  52 W14G22    30.10F
HUNTER AAF     NOT AVBL
FORT STEWART   NOT AVBL
STATESBORO     MOSUNNY   80  62  54 W10G20    30.08F
SYLVANIA       PTSUNNY   77  62  59 W12G21    30.09F
CLAXTON        FAIR      77  63  61 SW8       30.10F

...CSRA...CENTRAL AND FAR SOUTHEAST GEORGIA...

CITY           SKY/WX    TMP DP  RH WIND       PRES   REMARKS
THOMSON        MOSUNNY   73  64  74 SW8G18    30.11F
AUGUSTA-BUSH   MOSUNNY   77  59  53 SW22G30   30.06F
AUGUSTA-DANIEL PTSUNNY   75  60  59 SW13G26   30.07S
SWAINSBORO     CLOUDY    77  52  41 W12G17    30.10F
VIDALIA        MOSUNNY   77  63  61 SW10G21   30.10F
EASTMAN        CLOUDY    73  65  74 SW7       30.13F
HAZLEHURST     CLOUDY    79  64  60 W5        30.09F
ALMA           MOSUNNY   77  61  57 SW14      30.10F
WAYCROSS       PTSUNNY   81  66  60 SW15      30.11F
JESUP          PTSUNNY   81  68  65 SW8       30.11F
BAXLEY         PTSUNNY   79  63  57 SW10G16   30.10F
BRUNSWICK      PTSUNNY   81  63  54 SW16G24   30.12F
SAINT SIMONS   PTSUNNY   69  62  78 S8        30.13F

$$

SCZ027-028-034-036>038-045-046-048>050-GAZ119-141-041800-
...LAKE AND SUPPLEMENTAL COASTAL OBSERVATIONS...

STATION/POSITION TIME  TEMP    WIND        PRES    WAVE   SWELL
                       AIR SEA DIR/SP/G            HT/PER HT/PER/DIR
                 (UTC) (F)     (DEG/KT/KT) (MB)    (FT/S) (FT/S/D)
UPR LAKE MARION  NOT AVBL
WINYAH BAY       1545   67     210/ 16     1018.0
LAKE MURRAY      1600   60     230/  3/  4 1016.9F
ACE BASIN NERRS  NOT AVBL
FORT PULASKI     1600   69 50  190/  6/ 12 1020.3F
SAPELO ISLAND    1600   76     200/ 12     1020.0F

$$

ANZ835-935-AMZ111-154-330-350-352-354-370-450-454-472-041800-
...C-MAN AND BUOY OBSERVATIONS...

STATION/POSITION TIME  TEMP    WIND        PRES    WAVE   SWELL
                       AIR SEA DIR/SP/G            HT/PER HT/PER/DIR
                 (UTC) (F)     (DEG/KT/KT) (MB)    (FT/S) (FT/S/D)
BUOY 41004       1650   69 69  220/ 16/ 19 1019.2F   5/ 8   2/ 9
BUOY 41008       1650   57 54  200/ 12/ 12 1020.3F   2/10   2/120/10
FOLLY BEACH CMAN 1700   56     220/ 12/ 14 1020.0F
CAPERS NEARSHORE 1600   52     250/  6/  8   N/A
FRIPP NEARSHORE  1600   53     240/  8/  8 1019.6F


STATION/POSITION TIME  TEMP    WIND        PRES    WAVE   SWELL
                       AIR SEA DIR/SP/G            HT/PER HT/PER/DIR
                 (UTC) (F)     (DEG/KT/KT) (MB)    (FT/S) (FT/S/D)
5E ST. MARYS GA  1621      55                N/A     2/ 9
FRYING PAN BUOY  1650   66 62  220/  8/ 10 1019.5F   5/ 6   5/140/ 6
BUOY 41025       NOT AVBL
CAPE LOOKOUT NC  NOT AVBL
BUOY 41002       1650   72 73  220/ 16/ 19 1023.1F   6/10   5/130/10
BUOY 41010       1620   74 75  160/ 12/ 14 1023.2F
ST AUGUSTINE FL  1700   63     160/  5/  5 1021.6F


$$



USA.gov is the U.S. government's official web portal to all federal, state and local government web resources and services.